星链-32259 (STARLINK-32259)

导读

STARLINK-32259是美国SpaceX星链星座中的一颗卫星,于2024年8月31日08:00发射升空,属于美国SpaceX公司打造的低轨互联网卫星星座项目的组成部分,主要服务于全球范围的高速卫星互联网接入,为偏远地区、海洋等网络覆盖薄弱区域提供网络连接服务。

基本信息
目录编号:
60937
目录名称:
STARLINK-32259
国际标识:
2024-155P
轨道中心:
EARTH
卫星名称:
星链-32259
卫星全名:
星链-32259 (STARLINK-32259)
卫星状态:
在轨 (已飞行742 天)
发射日期:
2024-08-31 UTC
国别 :
美国 (US)
星等 :
--
该卫星已列入 空间交会检测服务 Space Conjunction Data Service (SCDS) ,当前飞行风险评估等级: 无高风险
轨道信息
数据来源 国际轨道数据 AOE轨道数据
星历时间 2026-09-11T23:03:20+0800
13小时前
查看轨道信息
2026-09-06T07:00:00+0800
6天前
查看轨道信息
半长轴 6840.877km 6840.766km
偏心率 0.0001289 0.0000917
轨道倾角 53.162° 53.160°
近地点辐角 100.936° 48.100°
升交点赤经 343.535° 10.039°
平近点角 259.179° 300.170°
近地点 461.858km 462.001km
远地点 463.622km 463.257km
周期 93.849分钟 93.846分钟
每日圈数 15.343878 15.344251
详细信息
固有亮度:
5
最大亮度:
2.5
卫星平台:
Starlink V1.0
覆盖范围:
全球
运营商:
太空探索技术公司
运营商所在国:
美国
制造商(研发单位):
太空探索技术公司
制造商所在国:
美国
使用方式:
暂无
卫星简介
Starlink 计划是 SpaceX 推出的全球卫星互联网项目,通过发射低轨道卫星,为全球尤其是偏远地区提供高速、低延迟的互联网服务。自 2019 年起,Starlink 已部署数千颗卫星,旨在缩小全球数字鸿沟,推动互联网普及。该项目还为军事、航空等行业提供通信支持,带来广泛经济效益。
2D轨道图
3D轨道图
轨道高度分析图
轨道倾角分析图
轨道综合分析图
查看轨道综合分析图
交会数据列表
事件ID 空间交会对象 最接近时刻(TCA) 交会距离 交会风险概率(CRP) 交会风险指数(CRI) 操作
CDM_260914-095906-093706-533621
2026-09-14T
09:59:46+0000
0.796 km
远距离
3.671437E-5 中风险 0.66
CDM_260914-001806-093706-588421
2026-09-14T
00:18:49+0000
1.363 km
极远距离
7.233635E-6 低风险 0.52
CDM_260912-111706-093706-324022
2026-09-12T
11:17:49+0000
2.394 km
极远距离
1.899177E-6 低风险 0.41
CDM_260914-113306-093706-533621
2026-09-14T
11:33:34+0000
2.088 km
极远距离
1.708956E-6 低风险 0.4
CDM_260913-171606-093706-588421
2026-09-13T
17:16:47+0000
2.352 km
极远距离
1.593272E-6 低风险 0.39
CDM_260908-034702-057606-093724
2026-09-08T
03:47:21+0000
2.964 km
极远距离
1.16533E-6 低风险 0.36
CDM_260913-142205-318206-093721
2026-09-13T
14:22:46+0000
2.866 km
极远距离
5.829206E-7 极低风险 0.3
与全量物体交会距离演化趋势
与全量物体交会风险概率演化趋势